Weather History for Boothville, LA

Change the Weather History Date:

Sunday, March 17, 2013

  Actual Average Record
Temperature  
Mean Temperature 65 °F -  
Max Temperature 72 °F - - ()
Min Temperature 59 °F - - ()
Growing Degree Days 15 (Base 50)    
Moisture  
Dew Point 60 °F    
Average Humidity 87    
Maximum Humidity 97    
Minimum Humidity 68    
Precipitation  
Precipitation 0.07 in - - ()
Sea Level Pressure  
Sea Level Pressure 29.94 in    
Wind  
Wind Speed 7 mph (SE)    
Max Wind Speed 17 mph    
Max Gust Speed 25 mph    
Visibility 8 miles    
Events Rain    
T = Trace of Precipitation, MM = Missing Value Source: NWS Daily Summary

Daily Weather History Graph

Daily Weather History Graph

Search for Another Location

Airport:

Trip Planner

Search our weather history database for the weather conditions in past years. The results will help you decide how hot, cold, wet, or windy it might be!

Date:

Astronomy

Mar. 17, 2013 Rise Set
Actual Time 7:04 AM CDT 7:07 PM CDT
Civil Twilight 6:41 AM CDT 7:31 PM CDT
Nautical Twilight 6:13 AM CDT 7:58 PM CDT
Astronomical Twilight 5:45 AM CDT 8:26 PM CDT
Moon 10:42 AM CDT (3/17) No Moon Set
Length of Visible Light 12h 50m
Length of Day
12h 02m
Waxing Crescent, 31% of the Moon is Illuminated
Mar 17
Waxing Crescent
Mar 19
First Quarter
Mar 27
Full
Apr 2
Last Quarter
Apr 10
New

Hourly Weather History & Observations

Time (CDT) Temp. Dew Point Humidity Pressure Visibility Wind Dir Wind Speed Gust Speed Precip Events Conditions
12:51 AM 61.0 °F 57.9 °F 90% 30.01 in 9.0 mi SE 3.5 mph - N/A   Scattered Clouds
1:51 AM 62.1 °F 59.0 °F 90% 29.99 in 9.0 mi SE 3.5 mph - N/A   Clear
2:51 AM 59.0 °F 57.0 °F 93% 29.97 in 9.0 mi SE 4.6 mph - N/A   Clear
3:51 AM 60.1 °F 57.9 °F 93% 29.96 in 7.0 mi SE 4.6 mph - N/A   Clear
4:51 AM 61.0 °F 60.1 °F 97% 29.95 in 7.0 mi SE 3.5 mph - N/A   Clear
5:51 AM 60.1 °F 57.9 °F 93% 29.95 in 7.0 mi ESE 3.5 mph - N/A   Clear
6:51 AM 62.1 °F 60.1 °F 93% 29.98 in 8.0 mi SE 4.6 mph - N/A   Clear
7:51 AM 60.1 °F 57.9 °F 93% 29.98 in 3.0 mi East 3.5 mph - 0.00 in   Mostly Cloudy
8:51 AM 64.9 °F 63.0 °F 93% 30.00 in 6.0 mi South 8.1 mph - 0.00 in Rain Light Rain
9:51 AM 66.9 °F 64.0 °F 90% 29.99 in 9.0 mi SSE 10.4 mph - 0.01 in Rain Light Rain
10:51 AM 68.0 °F 64.0 °F 87% 30.00 in 8.0 mi South 9.2 mph - 0.00 in Rain Light Rain
11:51 AM 68.0 °F 64.0 °F 87% 29.99 in 9.0 mi South 11.5 mph - 0.00 in   Mostly Cloudy
12:51 PM 68.0 °F 60.1 °F 76% 29.96 in 10.0 mi South 17.3 mph 25.3 mph N/A   Scattered Clouds
1:51 PM 70.0 °F 59.0 °F 68% 29.94 in 10.0 mi South 15.0 mph 20.7 mph N/A   Mostly Cloudy
2:51 PM 69.1 °F 60.1 °F 73% 29.92 in 10.0 mi SSE 5.8 mph - N/A   Overcast
3:51 PM 70.0 °F 59.0 °F 68% 29.91 in 10.0 mi SSE 4.6 mph - N/A   Overcast
4:51 PM 71.1 °F 62.1 °F 73% 29.90 in 10.0 mi SSE 9.2 mph - N/A   Mostly Cloudy
5:51 PM 66.0 °F 61.0 °F 84% 29.90 in 8.0 mi SSE 12.7 mph - N/A   Mostly Cloudy
6:51 PM 62.1 °F 60.1 °F 93% 29.91 in 4.0 mi ESE 6.9 mph - 0.01 in Rain Rain
7:51 PM 61.0 °F 60.1 °F 97% 29.90 in 9.0 mi ESE 8.1 mph - 0.05 in Rain Light Rain
8:51 PM 64.0 °F 60.1 °F 87% 29.91 in 10.0 mi SE 10.4 mph - 0.00 in   Overcast
9:51 PM 64.0 °F 59.0 °F 84% 29.91 in 10.0 mi SE 10.4 mph - N/A   Overcast
10:51 PM 64.0 °F 60.1 °F 87% 29.90 in 9.0 mi ESE 11.5 mph - N/A   Mostly Cloudy
11:17 PM 64.4 °F 59.0 °F 83% 29.90 in 10.0 mi SE 9.2 mph - N/A   Mostly Cloudy
11:27 PM 64.4 °F 60.8 °F 88% 29.90 in 10.0 mi SE 10.4 mph - N/A   Scattered Clouds
11:51 PM 64.9 °F 62.1 °F 90% 29.90 in 9.0 mi SE 8.1 mph - N/A   Mostly Cloudy